Seattle Boeing, WA

7:32 PM PST on November 12, 2018 (GMT -0800)
Boeing Field-King County International

Weather History for KBFI - November, 2018

Change the Weather History Date:

Friday, November 9, 2018

  Actual Average Record
Temperature  
Mean Temperature 38 °F -  
Max Temperature 44 °F 52 °F 66 °F (1997)
Min Temperature 33 °F 41 °F 27 °F (1948)
Degree Days  
Heating Degree Days 26    
Moisture  
Dew Point 36 °F    
Average Humidity 87    
Maximum Humidity 96    
Minimum Humidity 79    
Precipitation  
Precipitation 0.10 in - - ()
Sea Level Pressure  
Sea Level Pressure 30.33 in    
Wind  
Wind Speed 3 mph (SSE)    
Max Wind Speed 8 mph    
Max Gust Speed -    
Visibility 9 miles    
Events Fog , Rain    
Averages and records for this station are not official NWS values.
T = Trace of Precipitation, MM = Missing Value Source: NWS Daily Summary

Daily Weather History Graph

Daily Weather History Graph

Search for Another Location

Airport or City:

Astronomy

Nov. 09, 2018 Rise Set
Actual Time 7:05 AM PST 4:40 PM PST
Civil Twilight 6:32 AM PST 5:13 PM PST
Nautical Twilight 5:55 AM PST 5:49 PM PST
Astronomical Twilight 5:19 AM PST 6:25 PM PST
Moon 9:04 AM PST (11/9) 6:25 PM PST (11/9)
Length of Visible Light 10h 40m
Length of Day
9h 34m
Waxing Crescent, 5% of the Moon is Illuminated
Nov 9
Waxing Crescent
Nov 15
First Quarter
Nov 22
Full
Nov 29
Last Quarter
Dec 6
New

Hourly Weather History & Observations

Time (PST) Temp. Windchill Dew Point Humidity Pressure Visibility Wind Dir Wind Speed Gust Speed Precip Events Conditions
1:53 AM 34.0 °F 31.0 °F 33.1 °F 96% 30.42 in 6.0 mi SE 3.5 mph - N/A Fog Patches of Fog
2:19 AM 34.0 °F 31.0 °F 30.9 °F 89% 30.42 in 10.0 mi SE 3.5 mph - N/A Fog Patches of Fog
2:53 AM 35.1 °F 31.0 °F 32.0 °F 89% 30.40 in 10.0 mi SSE 4.6 mph - N/A Fog Patches of Fog
3:53 AM 33.1 °F 26.1 °F 30.9 °F 92% 30.38 in 9.0 mi SE 8.1 mph - N/A Fog Patches of Fog
4:53 AM 33.1 °F 28.7 °F 30.9 °F 92% 30.36 in 7.0 mi SSE 4.6 mph - N/A Fog Patches of Fog
5:53 AM 34.0 °F 28.8 °F 32.0 °F 92% 30.35 in 10.0 mi SE 5.8 mph - N/A   Clear
6:53 AM 35.1 °F 30.1 °F 32.0 °F 89% 30.32 in 10.0 mi SE 5.8 mph - N/A   Overcast
7:53 AM 36.0 °F 32.1 °F 33.1 °F 89% 30.31 in 10.0 mi SE 4.6 mph - N/A   Overcast
8:53 AM 37.9 °F - 33.1 °F 83% 30.31 in 10.0 mi Calm Calm - N/A   Overcast
9:53 AM 39.0 °F 36.8 °F 34.0 °F 82% 30.30 in 10.0 mi SSE 3.5 mph - N/A   Overcast
10:53 AM 41.0 °F - 36.0 °F 82% 30.32 in 6.0 mi Calm Calm - 0.01 in Rain Light Rain
11:33 AM 41.0 °F 36.4 °F 37.9 °F 89% 30.31 in 6.0 mi SSE 6.9 mph - 0.07 in Rain Light Rain
11:53 AM 41.0 °F 36.4 °F 37.9 °F 89% 30.29 in 5.0 mi SSE 6.9 mph - 0.09 in Rain Light Rain
12:25 PM 42.1 °F - 39.0 °F 89% 30.30 in 10.0 mi Calm Calm - 0.00 in   Overcast
12:53 PM 42.1 °F - 37.0 °F 82% 30.30 in 10.0 mi Calm Calm - 0.00 in   Overcast
1:53 PM 43.0 °F 40.3 °F 37.0 °F 80% 30.30 in 10.0 mi SE 4.6 mph - N/A   Overcast
2:53 PM 43.0 °F 40.3 °F 37.9 °F 82% 30.29 in 10.0 mi SSE 4.6 mph - N/A   Overcast
3:53 PM 43.0 °F - 37.0 °F 80% 30.30 in 10.0 mi Calm Calm - N/A   Overcast
4:53 PM 44.1 °F - 37.9 °F 79% 30.30 in 10.0 mi Calm Calm - N/A   Overcast
5:53 PM 43.0 °F - 37.9 °F 82% 30.30 in 10.0 mi Calm Calm - N/A   Overcast
6:53 PM 43.0 °F - 37.9 °F 82% 30.31 in 10.0 mi Calm Calm - N/A   Overcast
7:53 PM 42.1 °F - 37.9 °F 85% 30.32 in 10.0 mi Calm Calm - N/A   Mostly Cloudy
8:53 PM 41.0 °F - 37.0 °F 86% 30.33 in 10.0 mi Calm Calm - N/A   Mostly Cloudy
9:53 PM 41.0 °F - 39.0 °F 93% 30.33 in 10.0 mi Calm Calm - N/A   Overcast
10:53 PM 39.9 °F 37.8 °F 37.9 °F 93% 30.34 in 9.0 mi South 3.5 mph - N/A   Overcast
11:53 PM 39.9 °F 36.7 °F 37.9 °F 93% 30.34 in 9.0 mi SSE 4.6 mph - N/A   Overcast